[Date Prev][Date Next][Thread Prev][Thread Next] - [Date Index][Thread Index][Author Index]
2 Line ISS Keps 10-22
- Subject: [sarex] 2 Line ISS Keps 10-22
- From: "Dave Larsen PhD" <doc@xxxxxxxxxxx>
- Date: Fri, 21 Oct 2005 19:17:20 -0700
ISS
1 25544U 98067A 05294.95524905 .00018598 00000-0 13075-3 0 5995
2 25544 051.6438 331.3877 0001048 090.5192 344.6268 15.74196937395631
----
Via the sarex mailing list at AMSAT.ORG courtesy of AMSAT-NA.
To unsubscribe, send "unsubscribe sarex" to Majordomo@amsat.org
AMSAT Home